Hourly Data Report for May 07, 2021

CLYDE RIVER A
NUNAVUT
Current Station Operator: NAVCAN

70°29'09.000" N
68°31'01.000" W
26.50 m
2400804
71090
YCY

Download Data

Hourly Data (May 2021)
Hourly Data Report for May 7, 2021
TIME
LST
Temp Definition
°C
Dew Point Definition
°C
Rel Hum Definition
%
Precip. Amount Definition
mm

Wind Dir Definition
10's deg

Wind Spd Definition
km/h
Visibility Definition
km
Stn Press Definition
kPa
Hmdx Definition


Wind Chill Definition


Weather Definition


00:00 -6.0 -6.5 96 0.0 4 5 16.1 101.89   -8 LegendNANA
01:00 2.2 -0.7 81 0.0 23 26 16.1 101.86     LegendNANA
02:00 3.2 -0.4 77 0.0 23 30 16.1 101.85     LegendNANA
03:00 3.3 -0.3 77 0.0 21 32 16.1 101.84     LegendNANA
04:00 3.3 -0.4 77 0.0 23 24 16.1 101.82     LegendNANA
05:00 2.3 -0.5 82 0.0 14 11 16.1 101.87     LegendNANA
06:00 4.7 -0.9 67 0.0 23 28 16.1 101.83     LegendNANA
07:00 3.1 -0.3 78 0.0 23 17 16.1 101.86     LegendNANA
08:00 4.3 -0.2 73 0.0 24 8 16.1 101.86     LegendNANA
09:00 4.4 -0.6 70 0.0 LegendMM 5 16.1 101.87     LegendNANA
10:00 -1.7 -3.1 90 0.0 34 24 16.1 101.88   -8 LegendNANA
11:00 -2.2 -3.3 92 0.0 34 26 16.1 101.91   -9 LegendNANA
12:00 -2.1 -3.1 93 0.0 34 24 16.1 101.93   -8 LegendNANA
13:00 -1.8 -2.8 93 0.0 33 24 16.1 101.96   -8 LegendNANA
14:00 -1.8 -2.9 92 0.0 34 26 16.1 101.97   -8 LegendNANA
15:00 -2.1 -3.1 93 0.0 33 21 16.1 101.99   -8 LegendNANA
16:00 -2.2 -3.0 94 0.0 33 22 16.1 102.02   -8 LegendNANA
17:00 -2.2 -3.1 94 0.0 33 24 16.1 102.04   -9 LegendNANA
18:00 -2.6 -3.3 95 0.0 33 21 16.1 102.04   -9 LegendNANA
19:00 -3.0 -3.6 96 0.0 32 18 16.1 102.07   -9 LegendNANA
20:00 -3.0 -3.7 95 0.0 33 18 16.1 102.09   -9 Snow
21:00 -3.2 -3.6 97 0.0 33 18 11.3 102.12   -9 Snow
22:00 -3.6 -3.9 98 0.0 32 17 9.7 102.12   -9 Snow
23:00 -3.6 -3.9 98 0.0 33 15 16.1 102.12   -9 Snow

Notes on Data Quality.

Legend

  • E = Estimated
  • M = Missing
  • NA = Not Available*
  • [empty] = Indicates an unobserved value
Date modified: